This is the latest recevied weather packets stored in our database for station/object W8RSN-13. If no packets are shown the sender has not sent any weather packets the latest 10 day(s).
| Time | Temp. | Humidity | Pressure | Rain* | Wind** | Luminosity | Snow |
|---|---|---|---|---|---|---|---|
| 1787508815 | 33.33° C | 32% | 1015.9 hPa | - | - | - | - |
| 1787508515 | 33.33° C | 32% | 1015.6 hPa | - | - | - | - |
| 1787508213 | 32.78° C | 31% | 1015.6 hPa | - | - | - | - |
| 1787507913 | 33.33° C | 30% | 1015.9 hPa | - | - | - | - |
| 1787507612 | 32.78° C | 31% | 1015.7 hPa | - | - | - | - |
| 1787507311 | 32.78° C | 30% | 1015.9 hPa | - | - | - | - |
| 1787507010 | 32.22° C | 29% | 1015.9 hPa | - | - | - | - |
| 1787506709 | 32.78° C | 29% | 1015.6 hPa | - | - | - | - |
| 1787506408 | 32.22° C | 32% | 1015.7 hPa | - | - | - | - |
| 1787506107 | 31.67° C | 34% | 1015.7 hPa | - | - | - | - |
| 1787505806 | 31.67° C | 35% | 1015.7 hPa | - | - | - | - |
| 1787505505 | 32.22° C | 35% | 1015.6 hPa | - | - | - | - |
| 1787505204 | 32.22° C | 35% | 1015.6 hPa | - | - | - | - |
| 1787504903 | 31.67° C | 36% | 1015.5 hPa | - | - | - | - |
| 1787504603 | 31.67° C | 35% | 1015.4 hPa | - | - | - | - |
| 1787504302 | 31.67° C | 35% | 1015.3 hPa | - | - | - | - |
| 1787504000 | 31.11° C | 35% | 1015.4 hPa | - | - | - | - |
| 1787503701 | 31.11° C | 35% | 1015.4 hPa | - | - | - | - |
| 1787503399 | 31.11° C | 35% | 1015.4 hPa | - | - | - | - |
| 1787503098 | 30.56° C | 36% | 1015.5 hPa | - | - | - | - |
| 1787502797 | 30.56° C | 36% | 1015.3 hPa | - | - | - | - |
| 1787502496 | 30.56° C | 36% | 1015.3 hPa | - | - | - | - |
| 1787502215 | 30.56° C | 36% | 1015.4 hPa | - | - | - | - |
| 1787501914 | 30.56° C | 37% | 1015.4 hPa | - | - | - | - |
| 1787501613 | 30.56° C | 37% | 1015 hPa | - | - | - | - |
* Rain since midnight (hover to see other rain measurements)
** Current wind speed in m/s (hover to see current wind gust speed)